TimeMDT,TemperatureF,Dew PointF,Humidity,Sea Level PressureIn,VisibilityMPH,Wind Direction,Wind SpeedMPH,Gust SpeedMPH,PrecipitationIn,Events,Conditions,WindDirDegrees,DateUTC
12:09 AM,30.2,28.4,93,29.88,-9999.0,NW,6.9,-,0.00,Snow,Snow,310,2013-04-12 06:09:00
12:19 AM,30.2,28.4,93,29.89,-9999.0,WNW,5.8,-,0.00,Snow,Snow,300,2013-04-12 06:19:00
12:33 AM,30.2,28.4,93,29.89,2.0,NNW,8.1,-,0.01,Snow,Light Snow,330,2013-04-12 06:33:00
12:40 AM,30.2,28.4,93,29.89,-9999.0,NW,6.9,-,0.01,Snow,Light Snow,320,2013-04-12 06:40:00
12:53 AM,30.0,28.9,96,29.84,2.5,NW,5.8,-,0.01,Snow,Light Snow,320,2013-04-12 06:53:00
12:57 AM,30.2,28.4,93,29.89,-9999.0,NW,4.6,-,0.00,Snow,Snow,320,2013-04-12 06:57:00
1:09 AM,30.2,28.4,93,29.89,-9999.0,Calm,Calm,-,0.00,Snow,Light Snow,0,2013-04-12 07:09:00
1:22 AM,30.2,28.4,93,29.89,-9999.0,NW,5.8,-,0.01,Snow,Light Snow,320,2013-04-12 07:22:00
1:53 AM,30.0,28.9,96,29.83,2.5,NW,3.5,-,0.01,Snow,Light Snow,320,2013-04-12 07:53:00
2:00 AM,30.2,28.4,93,29.88,4.0,WNW,3.5,-,0.00,Snow,Light Snow,300,2013-04-12 08:00:00
2:53 AM,28.9,28.0,96,29.84,7.0,WSW,3.5,-,0.00,Snow,Light Snow,240,2013-04-12 08:53:00
3:53 AM,28.0,28.0,100,29.81,-9999.0,SSW,5.8,-,0.00,,Overcast,200,2013-04-12 09:53:00
4:09 AM,24.8,24.8,100,29.85,-9999.0,SSW,8.1,-,N/A,,Mostly Cloudy,200,2013-04-12 10:09:00
4:18 AM,23.0,21.2,93,29.85,-9999.0,South,5.8,-,N/A,,Mostly Cloudy,170,2013-04-12 10:18:00
4:26 AM,24.8,23.0,93,29.85,0.2,SE,4.6,-,N/A,Fog,Light Freezing Fog,140,2013-04-12 10:26:00
4:53 AM,23.0,21.9,96,29.84,-9999.0,SE,3.5,-,N/A,,Overcast,140,2013-04-12 10:53:00
5:08 AM,24.8,24.8,100,29.85,0.2,South,6.9,-,N/A,Fog,Light Freezing Fog,170,2013-04-12 11:08:00
5:19 AM,26.6,26.6,100,29.85,-9999.0,South,5.8,-,N/A,,Overcast,170,2013-04-12 11:19:00
5:35 AM,26.6,26.6,100,29.86,0.8,Calm,Calm,-,0.00,Snow,Light Snow,0,2013-04-12 11:35:00
5:40 AM,26.6,26.6,100,29.86,-9999.0,Calm,Calm,-,0.00,Snow,Light Snow,0,2013-04-12 11:40:00
5:53 AM,26.1,25.0,96,29.83,-9999.0,SSE,4.6,-,0.00,Snow,Light Snow,150,2013-04-12 11:53:00
6:46 AM,24.8,24.8,100,29.85,0.2,SSE,5.8,-,0.00,Fog,Light Freezing Fog,150,2013-04-12 12:46:00
6:53 AM,24.1,24.1,100,29.84,-9999.0,SSE,6.9,-,0.00,,Overcast,150,2013-04-12 12:53:00
7:08 AM,23.0,23.0,100,29.85,0.2,Calm,Calm,-,N/A,Fog,Light Freezing Fog,0,2013-04-12 13:08:00
7:18 AM,21.2,21.2,100,29.85,-9999.0,Calm,Calm,-,N/A,,Mostly Cloudy,0,2013-04-12 13:18:00
7:24 AM,21.2,19.4,93,29.85,-9999.0,West,5.8,-,N/A,,Mostly Cloudy,260,2013-04-12 13:24:00
7:44 AM,21.2,19.4,93,29.85,-9999.0,WSW,10.4,-,N/A,,Overcast,250,2013-04-12 13:44:00
7:53 AM,23.0,21.9,96,29.87,-9999.0,West,9.2,-,N/A,,Mostly Cloudy,260,2013-04-12 13:53:00
8:53 AM,30.9,28.0,89,29.84,-9999.0,West,9.2,-,N/A,,Mostly Cloudy,260,2013-04-12 14:53:00
9:53 AM,37.0,27.0,67,29.82,-9999.0,West,9.2,-,N/A,,Overcast,280,2013-04-12 15:53:00
10:53 AM,37.0,30.0,76,29.86,-9999.0,NNW,25.3,35.7,0.00,,Mostly Cloudy,330,2013-04-12 16:53:00
11:53 AM,35.1,28.0,76,29.90,-9999.0,North,23.0,29.9,0.00,,Overcast,360,2013-04-12 17:53:00
12:53 PM,33.1,26.1,75,29.93,-9999.0,North,17.3,24.2,0.00,Snow,Light Snow,360,2013-04-12 18:53:00
1:02 PM,33.8,26.6,75,29.94,-9999.0,North,15.0,23.0,0.00,Snow,Light Snow,360,2013-04-12 19:02:00
1:10 PM,33.8,26.6,75,29.94,-9999.0,North,17.3,-,0.00,,Overcast,360,2013-04-12 19:10:00
1:37 PM,33.8,28.4,81,29.94,-9999.0,North,15.0,-,0.00,,Overcast,360,2013-04-12 19:37:00
1:53 PM,35.1,28.0,76,29.92,-9999.0,North,11.5,19.6,0.00,,Overcast,350,2013-04-12 19:53:00
2:23 PM,37.4,28.4,70,29.93,-9999.0,North,15.0,21.9,N/A,,Overcast,350,2013-04-12 20:23:00
2:51 PM,41.0,28.4,61,29.93,-9999.0,NNW,16.1,24.2,N/A,,Scattered Clouds,340,2013-04-12 20:51:00
2:53 PM,41.0,28.9,62,29.88,-9999.0,North,16.1,24.2,N/A,,Scattered Clouds,350,2013-04-12 20:53:00
3:53 PM,44.1,25.0,47,29.84,-9999.0,NNW,21.9,27.6,N/A,,Mostly Cloudy,330,2013-04-12 21:53:00
4:53 PM,44.1,21.0,40,29.85,-9999.0,NW,21.9,28.8,N/A,,Clear,320,2013-04-12 22:53:00
5:53 PM,45.0,15.1,30,29.83,-9999.0,WNW,20.7,-,N/A,,Clear,290,2013-04-12 23:53:00
6:53 PM,43.0,19.0,38,29.86,-9999.0,WNW,18.4,-,N/A,,Clear,300,2013-04-13 00:53:00
7:53 PM,34.0,25.0,70,29.91,-9999.0,ENE,8.1,-,N/A,,Clear,60,2013-04-13 01:53:00
8:53 PM,32.0,26.1,79,29.88,-9999.0,SSE,15.0,-,N/A,,Clear,150,2013-04-13 02:53:00
9:53 PM,30.0,25.0,82,29.86,-9999.0,SSE,21.9,27.6,N/A,,Clear,160,2013-04-13 03:53:00
10:53 PM,28.9,24.1,82,29.86,-9999.0,SSE,17.3,-,N/A,,Clear,150,2013-04-13 04:53:00
11:53 PM,28.0,23.0,81,29.86,-9999.0,SSE,12.7,-,N/A,,Clear,160,2013-04-13 05:53:00